TimeCDT,TemperatureF,Dew PointF,Humidity,Sea Level PressureIn,VisibilityMPH,Wind Direction,Wind SpeedMPH,Gust SpeedMPH,PrecipitationIn,Events,Conditions,WindDirDegrees,DateUTC
12:35 AM,48.2,46.4,93,30.11,10.0,NNW,16.1,-,N/A,,Overcast,340,2012-10-26 05:35:00
12:56 AM,48.2,46.4,93,30.11,10.0,North,16.1,20.7,N/A,,Overcast,350,2012-10-26 05:56:00
1:15 AM,48.2,44.6,87,30.12,10.0,North,20.7,-,N/A,,Overcast,350,2012-10-26 06:15:00
1:35 AM,48.2,44.6,87,30.14,10.0,North,17.3,-,N/A,,Overcast,350,2012-10-26 06:35:00
2:15 AM,48.2,44.6,87,30.14,10.0,North,15.0,-,N/A,,Overcast,350,2012-10-26 07:15:00
2:35 AM,48.2,44.6,87,30.13,10.0,North,16.1,-,N/A,,Overcast,350,2012-10-26 07:35:00
2:56 AM,48.2,44.6,87,30.13,10.0,North,15.0,-,N/A,,Overcast,360,2012-10-26 07:56:00
3:15 AM,48.2,44.6,87,30.15,10.0,North,17.3,20.7,N/A,,Overcast,350,2012-10-26 08:15:00
3:35 AM,46.4,44.6,93,30.17,9.0,North,11.5,20.7,N/A,,Overcast,350,2012-10-26 08:35:00
3:55 AM,46.4,44.6,93,30.15,10.0,North,15.0,-,N/A,,Overcast,360,2012-10-26 08:55:00
4:15 AM,46.4,44.6,93,30.12,10.0,NNE,11.5,21.9,N/A,,Mostly Cloudy,20,2012-10-26 09:15:00
4:35 AM,46.4,44.6,93,30.16,10.0,North,9.2,-,N/A,,Overcast,360,2012-10-26 09:35:00
4:56 AM,46.4,44.6,93,30.16,10.0,North,10.4,-,N/A,,Overcast,10,2012-10-26 09:56:00
5:15 AM,46.4,44.6,93,30.15,10.0,North,11.5,-,N/A,,Overcast,10,2012-10-26 10:15:00
6:15 AM,46.4,42.8,87,30.18,10.0,North,12.7,-,N/A,,Overcast,360,2012-10-26 11:15:00
6:55 AM,46.4,42.8,87,30.21,10.0,North,11.5,-,N/A,,Overcast,350,2012-10-26 11:55:00
7:15 AM,46.4,41.0,81,30.21,10.0,North,13.8,-,N/A,,Overcast,360,2012-10-26 12:15:00
7:55 AM,44.6,42.8,93,30.21,10.0,North,16.1,-,N/A,,Overcast,360,2012-10-26 12:55:00
8:55 AM,44.6,37.4,76,30.24,10.0,North,17.3,24.2,N/A,,Overcast,10,2012-10-26 13:55:00
9:15 AM,44.6,39.2,81,30.24,10.0,North,12.7,-,N/A,,Overcast,10,2012-10-26 14:15:00
9:35 AM,44.6,39.2,81,30.26,10.0,North,12.7,-,N/A,,Overcast,10,2012-10-26 14:35:00
10:15 AM,44.6,37.4,76,30.26,10.0,North,18.4,-,N/A,,Overcast,350,2012-10-26 15:15:00
10:35 AM,44.6,37.4,76,30.26,10.0,North,15.0,-,N/A,,Overcast,360,2012-10-26 15:35:00
10:55 AM,44.6,37.4,76,30.25,10.0,North,18.4,23.0,N/A,,Overcast,360,2012-10-26 15:55:00
11:15 AM,44.6,37.4,76,30.27,10.0,North,16.1,23.0,N/A,,Overcast,10,2012-10-26 16:15:00
11:35 AM,44.6,35.6,71,30.26,10.0,North,18.4,24.2,N/A,,Overcast,10,2012-10-26 16:35:00
11:55 AM,44.6,33.8,66,30.26,8.0,North,16.1,24.2,N/A,,Overcast,10,2012-10-26 16:55:00
12:15 PM,46.4,35.6,66,30.26,10.0,NNE,17.3,-,N/A,,Overcast,20,2012-10-26 17:15:00
12:35 PM,46.4,35.6,66,30.26,10.0,North,13.8,-,N/A,,Overcast,360,2012-10-26 17:35:00
12:56 PM,46.4,35.6,66,30.27,10.0,North,17.3,20.7,N/A,,Overcast,350,2012-10-26 17:56:00
1:15 PM,46.4,35.6,66,30.26,9.0,North,10.4,17.3,N/A,,Overcast,350,2012-10-26 18:15:00
1:35 PM,48.2,35.6,62,30.24,7.0,NNE,10.4,-,N/A,,Overcast,20,2012-10-26 18:35:00
1:55 PM,48.2,35.6,62,30.23,9.0,NNE,9.2,-,N/A,,Overcast,30,2012-10-26 18:55:00
2:15 PM,48.2,37.4,66,30.23,10.0,NNE,8.1,-,N/A,,Overcast,30,2012-10-26 19:15:00
2:35 PM,48.2,37.4,66,30.22,10.0,NNE,9.2,-,N/A,,Overcast,30,2012-10-26 19:35:00
2:55 PM,50.0,39.2,66,30.22,10.0,NNE,8.1,-,N/A,,Overcast,20,2012-10-26 19:55:00
3:16 PM,51.8,37.4,58,30.21,10.0,North,9.2,-,N/A,,Overcast,360,2012-10-26 20:16:00
3:35 PM,51.8,37.4,58,30.22,10.0,NE,10.4,-,N/A,,Overcast,50,2012-10-26 20:35:00
3:55 PM,51.8,33.8,50,30.21,10.0,NNE,13.8,-,N/A,,Overcast,20,2012-10-26 20:55:00
4:35 PM,53.6,35.6,51,30.20,10.0,North,12.7,16.1,N/A,,Clear,10,2012-10-26 21:35:00
4:55 PM,53.6,33.8,47,30.19,10.0,NNE,10.4,-,N/A,,Clear,20,2012-10-26 21:55:00
5:15 PM,53.6,35.6,51,30.19,10.0,NNE,12.7,-,N/A,,Clear,20,2012-10-26 22:15:00
5:36 PM,51.8,35.6,54,30.19,10.0,NNE,11.5,-,N/A,,Clear,30,2012-10-26 22:36:00
5:55 PM,51.8,37.4,58,30.21,10.0,NE,9.2,-,N/A,,Clear,40,2012-10-26 22:55:00
6:15 PM,48.2,37.4,66,30.21,10.0,NE,5.8,-,N/A,,Clear,40,2012-10-26 23:15:00
6:35 PM,46.4,39.2,76,30.22,10.0,NNE,5.8,-,N/A,,Clear,30,2012-10-26 23:35:00
6:55 PM,46.4,37.4,71,30.22,10.0,North,6.9,-,N/A,,Clear,10,2012-10-26 23:55:00
7:35 PM,46.4,35.6,66,30.24,10.0,North,6.9,-,N/A,,Clear,10,2012-10-27 00:35:00
7:55 PM,44.6,37.4,76,30.24,10.0,North,5.8,-,N/A,,Clear,10,2012-10-27 00:55:00
8:15 PM,46.4,33.8,62,30.24,10.0,North,8.1,-,N/A,,Clear,360,2012-10-27 01:15:00
8:36 PM,44.6,33.8,66,30.24,10.0,North,8.1,-,N/A,,Clear,360,2012-10-27 01:36:00
8:55 PM,44.6,33.8,66,30.25,10.0,North,6.9,-,N/A,,Clear,360,2012-10-27 01:55:00
9:15 PM,42.8,33.8,70,30.26,10.0,North,8.1,-,N/A,,Clear,360,2012-10-27 02:15:00
9:36 PM,44.6,33.8,66,30.26,10.0,North,10.4,-,N/A,,Clear,360,2012-10-27 02:36:00
9:55 PM,42.8,33.8,70,30.27,10.0,North,5.8,-,N/A,,Clear,350,2012-10-27 02:55:00
10:15 PM,42.8,33.8,70,30.27,10.0,North,9.2,-,N/A,,Clear,360,2012-10-27 03:15:00
10:35 PM,42.8,32.0,66,30.27,10.0,North,8.1,-,N/A,,Clear,350,2012-10-27 03:35:00
10:55 PM,39.2,33.8,81,30.27,10.0,NNW,6.9,-,N/A,,Clear,340,2012-10-27 03:55:00
11:15 PM,39.2,33.8,81,30.27,10.0,NNW,8.1,-,N/A,,Clear,330,2012-10-27 04:15:00
11:36 PM,39.2,33.8,81,30.27,10.0,NNW,9.2,-,N/A,,Clear,330,2012-10-27 04:36:00
11:55 PM,39.2,33.8,81,30.27,10.0,NNW,9.2,-,N/A,,Clear,330,2012-10-27 04:55:00